Theta_e
324 321 323 321 321 321 321 322 322 324 324 323 323 323 321 325 324 323 323 324 325 326 326 327 326 326 326 325 324 324 323 324 324 325 327 328 330 331 328 327 329 332 333 334
321 322 323 321 321 321 322 322 321 324 323 322 323 322 321 321 324 324 325 325 325 325 326 325 325 327 325 323 323 323 325 324 324 325 328 329 328 326 324 323 326 327 329 328
320 322 323 321 321 322 322 324 324 322 320 319 320 319 319 322 326 326 325 324 325 325 326 325 324 324 322 323 322 324 322 321 324 326 324 326 325 326 326 325 325 323 323 323
320 320 320 322 324 321 321 322 322 325 320 319 321 319 320 326 329 330 328 328 326 326 323 322 322 322 322 322 321 323 321 320 320 319 322 325 326 327 327 327 326 325 325 323
320 321 321 321 322 319 318 319 318 319 318 321 321 323 330 331 332 330 328 327 326 323 322 321 321 321 322 321 321 323 321 320 321 322 323 320 320 322 323 323 324 324 324 323
319 320 320 319 319 318 318 318 318 321 320 325 324 327 332 331 333 330 328 327 326 322 320 319 321 320 320 320 322 323 322 323 320 319 319 319 320 321 322 321 320 321 321 322
321 318 317 318 317 317 319 323 328 330 327 328 325 328 331 330 330 329 327 324 321 320 317 317 318 318 320 320 322 322 322 321 321 321 320 321 321 319 319 318 318 318 318 316
321 325 319 319 318 319 321 320 329 321 326 326 325 334 330 328 326 325 323 321 321 321 318 318 319 319 320 322 322 322 320 320 320 319 318 317 316 314 314 314 314 313 313 313
325 324 319 319 317 319 327 327 329 327 331 324 324 330 329 328 327 326 325 324 321 320 319 319 317 318 320 321 323 320 321 319 318 317 315 314 313 311 311 312 312 312 312 311
324 327 322 318 317 316 320 323 326 333 326 333 327 331 334 330 329 327 324 322 321 320 318 317 316 319 320 321 321 320 320 318 316 314 312 311 310 309 309 309 309 309 309 309
320 323 322 319 318 316 319 321 321 327 331 328 326 326 327 327 327 327 325 322 320 319 316 316 315 318 321 321 320 320 318 315 314 311 310 308 308 308 307 307 308 307 308 309
322 324 326 325 322 319 318 318 323 330 329 328 328 329 326 326 323 324 323 323 320 318 316 315 316 319 321 321 320 319 316 313 311 308 307 306 307 306 305 305 305 307 308 308
324 323 320 319 318 321 322 322 319 321 325 327 328 329 324 325 324 324 323 321 317 317 317 316 317 320 320 319 318 316 313 309 307 305 305 304 304 303 303 304 304 305 306 307
323 323 324 328 328 321 324 327 325 321 326 328 329 328 327 326 325 323 321 318 317 318 317 318 317 319 319 317 314 312 308 305 303 302 302 303 302 302 302 303 304 305 306 308
319 320 321 320 321 321 321 321 319 318 320 323 322 325 327 326 324 324 320 319 320 319 319 319 319 317 317 313 310 306 304 302 301 301 302 301 301 301 302 302 303 304 305 306
321 322 323 325 324 322 322 320 320 319 318 318 320 326 322 324 323 320 320 320 319 320 320 320 319 317 314 309 305 303 300 299 299 300 300 300 299 300 301 302 302 303 304 305
325 323 326 328 326 325 325 323 323 321 319 321 324 324 322 322 321 320 320 319 321 319 320 319 317 315 309 305 302 299 298 298 298 299 298 298 298 300 301 301 301 301 302 304
321 323 327 327 326 330 324 322 321 325 326 325 325 324 323 321 319 317 317 318 319 318 319 317 314 309 304 301 298 297 297 297 297 297 296 296 299 300 300 299 300 300 301 301
322 323 321 323 326 325 324 325 326 327 329 326 325 323 320 318 316 317 316 318 317 317 316 314 309 304 301 298 296 296 297 296 295 295 296 297 299 299 299 299 299 299 299 299
321 322 323 322 325 323 324 326 324 324 331 326 322 320 318 317 317 316 317 317 317 316 314 310 306 301 298 296 296 296 296 295 294 294 296 297 298 298 298 299 299 299 298 298
325 324 323 322 324 323 327 325 325 326 327 325 321 318 317 318 316 315 317 316 316 313 311 308 304 299 296 296 295 295 296 294 295 296 296 296 296 297 297 298 298 298 298 297
326 327 327 326 326 327 325 326 328 325 320 320 317 317 316 315 315 316 315 316 314 311 309 305 302 297 295 295 295 296 295 295 295 294 294 294 294 295 295 296 297 297 297 297
326 325 326 325 327 326 323 324 322 319 320 320 318 316 315 314 315 315 314 314 312 310 306 302 299 296 295 294 295 296 294 295 294 294 292 292 293 294 294 294 296 296 296 297
323 322 322 324 327 325 324 322 321 320 318 316 315 315 314 314 315 314 315 313 311 308 304 299 296 295 295 294 295 293 294 295 294 293 293 292 292 292 293 294 294 294 295 296
320 319 320 320 322 323 323 319 317 316 315 314 314 315 313 314 314 314 315 312 309 306 301 297 295 295 294 295 295 296 295 295 295 294 293 293 292 292 293 293 294 295 295 296
318 320 319 320 318 316 318 316 315 314 314 314 314 314 315 314 313 314 313 310 307 304 299 296 295 294 295 296 297 297 297 296 295 294 293 293 293 292 293 293 294 295 296 296
Wind_Speed
10 1 3 2 4 5 5 6 7 4 7 6 4 4 5 10 7 7 8 8 8 8 7 7 5 7 6 2 5 6 9 8 12 16 18 23 23 22 25 28 29 30 31 31
2 6 3 4 3 5 6 6 6 5 5 4 3 8 9 6 8 8 10 9 7 5 4 3 6 2 4 2 5 5 6 8 11 14 15 16 20 27 28 28 24 29 28 31
3 3 3 1 3 5 5 4 3 3 6 7 6 8 10 6 13 10 8 8 6 4 3 1 2 7 3 2 2 1 2 6 8 11 16 20 26 27 27 27 28 28 32 35
3 4 4 3 5 4 4 8 10 9 7 3 4 5 6 10 10 9 8 1 5 4 3 1 5 1 2 4 6 4 1 2 7 12 13 16 20 23 25 27 28 29 31 34
7 3 5 5 2 6 4 7 6 5 5 3 10 2 2 8 5 2 6 6 8 5 2 6 3 6 7 9 10 3 1 5 7 10 11 16 19 22 25 26 26 28 29 29
8 2 1 2 4 1 5 5 7 6 3 1 11 5 2 3 6 3 2 9 8 3 6 5 9 12 13 16 6 1 2 6 9 12 15 19 22 23 24 27 28 25 25 25
9 7 5 4 3 7 6 2 3 5 3 6 4 4 3 7 9 7 7 4 5 7 6 5 5 7 11 13 9 8 9 11 14 16 17 17 18 22 23 25 25 26 26 28
5 5 9 7 4 2 4 6 5 4 1 5 8 4 2 7 7 8 7 6 7 7 3 5 4 8 8 9 9 12 13 14 14 16 17 20 24 26 28 29 29 28 29 30
4 3 6 5 4 2 4 4 8 4 4 3 2 4 4 9 7 7 5 5 7 7 4 4 5 10 12 14 14 16 14 14 16 18 23 27 29 30 30 30 28 29 30 31
1 3 4 6 2 5 3 1 1 3 2 3 4 2 3 5 5 4 6 6 7 8 5 5 8 13 15 13 16 17 15 16 18 21 27 28 32 29 30 31 32 32 32 33
3 4 7 5 6 7 2 2 2 4 5 5 2 5 5 9 6 2 5 8 9 6 6 5 6 13 16 17 19 17 19 22 21 25 27 32 31 30 31 32 32 33 32 31
3 3 3 6 9 4 4 1 5 5 4 3 5 5 8 8 8 2 3 0 8 4 5 5 6 13 19 21 21 19 21 20 21 25 32 31 30 31 31 32 31 31 31 32
1 1 2 6 6 4 2 2 4 3 4 5 5 5 7 7 3 3 5 6 5 6 7 5 8 12 16 19 18 20 19 22 26 34 30 30 29 31 32 32 32 31 31 33
7 3 3 5 3 4 5 5 8 5 4 4 6 8 5 1 5 6 6 7 7 7 7 6 7 9 14 16 19 19 21 27 31 29 28 26 30 31 32 33 33 32 31 30
5 3 1 8 8 11 12 12 10 5 6 6 8 8 1 2 2 2 6 6 7 7 7 7 7 6 14 17 17 20 26 31 28 29 27 30 31 32 31 31 31 31 28 27
3 3 2 4 10 12 13 12 12 8 7 10 9 3 5 5 2 9 7 6 6 6 7 8 7 10 11 14 16 23 28 27 28 28 28 29 31 31 30 29 25 23 22 21
7 5 3 4 6 12 9 6 9 9 7 5 5 6 9 5 8 5 3 5 6 6 7 7 7 9 13 15 20 25 25 26 28 25 29 29 30 29 26 24 22 22 21 21
3 2 1 2 4 4 7 7 12 3 12 12 9 12 8 6 6 6 4 6 6 7 8 6 9 14 15 21 25 24 25 26 26 26 26 28 29 25 24 22 23 22 22 25
6 4 1 2 4 9 14 7 5 4 5 8 9 10 9 9 7 4 7 6 8 9 8 14 17 16 17 23 25 24 23 24 24 25 25 27 25 23 23 23 25 22 22 27
8 5 5 3 2 3 2 2 6 4 3 9 12 9 9 8 4 4 6 5 11 16 19 18 17 15 22 24 24 22 22 21 23 25 24 24 24 24 23 24 22 23 23 26
1 1 7 4 4 5 7 9 5 5 4 3 5 5 5 2 4 4 5 11 17 18 20 18 19 19 21 23 23 21 20 21 23 23 20 22 25 23 25 25 25 24 25 27
5 5 3 1 2 7 3 5 5 3 7 9 6 5 6 6 7 6 7 13 14 15 18 20 19 19 23 24 22 20 19 23 20 19 19 22 25 25 26 27 27 26 24 26
4 7 6 7 6 6 4 4 8 8 7 7 3 5 5 6 6 6 7 12 13 16 17 20 19 19 22 23 23 18 19 20 19 20 23 22 25 25 28 28 25 25 24 25
4 4 4 3 4 8 8 4 6 9 6 7 4 3 5 7 7 8 12 9 12 17 18 18 19 20 20 23 21 18 19 19 21 22 22 22 24 27 27 28 27 25 22 22
2 4 3 1 3 8 7 6 7 8 7 7 5 5 8 8 7 9 9 9 14 16 18 19 19 18 18 20 18 20 21 19 20 22 21 23 23 23 28 32 27 28 30 26
2 2 2 3 5 5 5 7 8 6 3 4 6 7 8 10 8 12 7 14 15 16 16 18 19 17 18 16 20 21 22 21 21 21 21 23 25 27 25 24 26 27 28 29
Wind_Direction
231 278 276 29 8 3 316 305 317 94 153 126 143 246 268 192 182 149 159 137 120 109 132 135 198 232 195 268 310 309 323 337 337 337 341 338 338 340 334 328 327 333 331 329
296 250 74 6 34 355 318 301 298 304 33 92 146 249 245 231 179 162 117 95 97 106 141 233 274 142 141 290 302 309 352 352 338 337 342 331 324 322 322 326 318 313 320 325
209 98 131 40 215 240 284 299 293 52 357 349 323 304 268 258 116 96 99 120 134 184 202 107 42 125 184 267 350 30 9 350 352 350 341 329 325 322 317 318 317 323 321 319
319 118 1 293 314 93 334 21 11 7 18 283 45 278 311 94 54 74 84 99 294 136 107 238 85 20 317 68 347 190 77 358 350 346 344 339 335 322 314 310 310 311 311 314
261 123 156 305 90 56 259 27 344 300 287 332 295 2 241 99 63 127 153 229 288 281 26 55 29 326 70 344 322 187 137 338 10 3 346 331 325 317 313 313 310 308 308 307
259 99 343 271 19 338 299 305 296 267 194 309 250 209 269 140 163 184 213 239 259 17 49 22 23 38 0 348 354 340 7 35 13 349 338 332 321 313 312 311 308 305 305 306
265 203 171 85 303 272 202 22 329 347 41 220 331 328 219 137 146 165 195 188 22 12 26 2 43 4 343 335 8 20 45 17 360 355 350 345 339 333 329 320 314 307 303 301
260 292 162 153 216 47 292 136 144 200 35 288 332 30 6 64 59 64 56 29 5 340 325 10 18 337 332 23 25 61 26 10 7 350 339 328 328 327 319 308 302 300 299 297
1 35 55 89 59 96 330 56 164 108 20 29 233 99 51 66 36 26 345 322 303 296 324 58 342 343 22 23 52 30 29 8 356 349 340 336 334 326 314 308 303 300 296 294
303 346 223 139 174 273 214 283 48 25 129 227 314 76 201 142 154 246 319 335 325 322 351 339 12 39 18 40 32 12 7 6 357 347 339 334 325 316 310 305 298 296 295 291
153 154 287 135 192 205 177 256 202 132 136 171 193 268 184 193 171 162 272 310 294 314 344 33 30 19 35 30 19 21 12 354 347 338 336 328 318 311 308 303 297 297 293 287
148 135 265 272 298 166 129 270 127 123 266 191 157 261 278 155 180 101 82 223 277 330 42 42 20 25 28 32 18 0 348 349 342 338 331 324 315 311 310 304 301 299 294 290
122 359 346 298 326 31 60 307 237 184 123 204 147 261 228 100 101 199 225 266 354 11 13 6 29 35 43 16 4 355 353 353 342 334 326 319 318 316 310 306 303 300 294 288
75 107 159 204 295 300 293 268 256 201 142 224 220 259 69 27 60 10 5 3 17 16 5 32 32 40 20 15 4 1 356 344 335 330 324 321 321 317 312 308 306 303 298 292
108 157 318 294 306 308 299 296 282 260 235 178 242 249 162 155 129 315 45 29 25 356 22 28 40 21 18 12 12 358 345 340 336 331 332 326 323 320 318 314 312 311 310 306
125 203 209 291 301 292 289 281 281 277 268 265 267 138 116 32 11 52 45 30 348 24 29 35 34 24 30 27 3 350 344 342 339 333 331 332 328 325 323 322 327 332 332 338
141 154 170 242 303 322 306 276 297 286 243 77 354 117 124 102 72 96 14 351 52 34 46 45 37 35 44 21 2 351 347 342 336 339 337 335 332 330 334 343 355 359 5 16
120 101 143 247 306 254 249 266 282 52 51 36 56 74 84 92 95 91 15 54 51 44 62 45 44 50 35 12 360 355 350 341 342 343 341 340 337 343 353 4 10 13 26 34
183 158 209 188 232 281 306 327 17 90 68 18 49 49 42 18 19 346 12 77 67 89 75 58 64 52 28 12 3 356 346 343 346 344 345 345 351 1 6 9 21 22 41 47
217 168 162 207 254 270 269 13 56 65 69 6 17 35 28 34 28 286 346 40 88 73 64 57 56 49 28 11 2 353 345 349 349 344 349 0 12 14 13 21 26 39 44 53
96 166 191 192 205 265 356 2 334 71 322 228 126 49 31 35 210 266 44 67 77 70 55 50 54 47 24 10 2 353 354 359 351 354 14 21 28 29 31 35 40 45 52 56
184 166 193 108 264 248 319 49 98 221 8 6 31 34 12 341 339 45 21 89 73 63 49 46 48 36 20 11 2 354 9 357 11 24 28 27 37 43 44 44 44 45 51 56
213 192 169 166 198 176 221 174 153 173 169 196 62 15 357 349 350 40 31 90 76 67 57 52 47 34 21 14 5 7 8 17 32 32 32 34 53 49 57 51 49 50 50 58
20 85 104 100 136 179 194 189 161 201 193 91 57 333 11 3 51 37 83 78 70 64 59 52 48 35 20 13 19 25 22 40 43 42 37 39 46 52 56 57 54 52 51 56
200 57 76 27 104 100 160 126 95 63 58 52 15 34 28 59 31 62 89 85 74 72 72 60 55 40 27 19 33 37 39 40 47 46 43 44 46 52 60 61 64 67 71 74
94 195 123 151 125 107 107 116 116 99 65 37 69 41 63 51 45 84 84 91 88 82 81 71 61 51 40 31 27 55 52 52 54 52 47 51 56 61 62 66 71 81 87 91